Flag Weather past 2 weeks in Redlands, California, U.S.A.

Now
53 °F

Fog.


Feels Like: 53 °F
Forecast: 52 / 70 °F
Wind: 1 mph from South

Location: Riverside / March Air Force Base

Current Time: Oct 31, 2014 at 6:38:27 AM

Latest Report: Oct 31, 2014 at 5:58 AM


Visibility: 6 mi

Pressure: 29.95 "Hg

Humidity: 100%

Dew point: 53 °F

Location of RedlandsLocation

Historic Weather in Redlands — Graph

°F

Redlands temperature yesterday

Maximum temperature yesterday: 85 °F (at 12:58 PM)
Minimum temperature yesterday: 50 °F (at 6:58 AM)
Average temperature yesterday: 65 °F

Past Weeks' High & Low Weather Summary

 TemperatureHumidityPressure
High91 °F (Oct 24, 1:58 PM)100% (Oct 20, 7:58 AM)30.07 "Hg (Oct 20, 7:58 AM)
Low47 °F (Oct 29, 6:58 AM)7% (Oct 22, 1:58 PM)29.82 "Hg (Oct 18, 4:58 PM)
Average65 °F62%29.94 "Hg
* Reported Oct 16 4:58 AM — Oct 31 4:58 AM, Redlands, Weather by CustomWeather, © 2014

Note: Actual official high and low records may vary slightly from our data, if they occured in-between our weather recording intervals... More about our weather records

Advertising

Redlands weather history for previous 24 hours

 ConditionsComfort  
Time TempWeatherWind HumidityBarometerVisibility
4:58 AM
Oct 31
51 °FClear.No wind98%29.95 "Hg7 mi
3:58 AM52 °FClear.1 mph97%29.93 "Hg7 mi
2:58 AM54 °FClear.3 mph98%29.95 "Hg10 mi
1:58 AM54 °FClear.1 mph96%29.95 "Hg10 mi
12:58 AM57 °FClear.3 mph88%29.95 "Hg10 mi
11:58 PM
Oct 30
57 °FClear.2 mph88%29.96 "Hg10 mi
10:58 PM59 °FClear.No wind82%29.96 "Hg10 mi
9:58 PM63 °FPassing clouds.2 mph83%29.98 "Hg10 mi
8:58 PM65 °FPassing clouds.10 mph72%29.97 "Hg10 mi
7:58 PM67 °FPassing clouds.1 mph68%29.96 "Hg10 mi
6:58 PM69 °FPartly cloudy.6 mph60%29.95 "Hg10 mi
5:58 PM72 °FPartly sunny.8 mph44%29.92 "Hg10 mi
4:58 PM76 °FPartly sunny.10 mph32%29.92 "Hg10 mi
3:58 PM81 °FPartly sunny.13 mph24%29.91 "Hg10 mi
2:58 PM83 °FScattered clouds.12 mph21%29.92 "Hg10 mi
1:58 PM84 °FScattered clouds.12 mph20%29.93 "Hg10 mi
12:58 PM85 °FScattered clouds.7 mph16%29.95 "Hg10 mi
11:58 AM78 °FPassing clouds.5 mph24%29.97 "Hg10 mi
10:58 AM74 °FSunny.3 mph35%29.99 "Hg10 mi
9:58 AM64 °FSunny.1 mph54%30.01 "Hg10 mi
8:58 AM59 °FSunny.No wind62%30.01 "Hg10 mi
7:58 AM51 °FClear.No wind72%30.00 "Hg10 mi
6:58 AM50 °FClear.No wind79%29.99 "Hg10 mi
Weather by CustomWeather, © 2014

See weather overviewHow to use our weather pages